TimeEST,TemperatureF,Dew PointF,Humidity,Sea Level PressureIn,VisibilityMPH,Wind Direction,Wind SpeedMPH,Gust SpeedMPH,PrecipitationIn,Events,Conditions,WindDirDegrees,DateUTC
12:01 AM,39.2,35.6,87,30.28,2.0,ENE,3.5,-,0.02,Rain,Heavy Rain,70,2013-12-09 05:01:00
12:12 AM,39.2,35.6,87,30.27,8.0,East,4.6,-,0.02,Rain,Light Rain,100,2013-12-09 05:12:00
12:31 AM,39.2,35.6,87,30.25,10.0,ENE,5.8,-,0.02,,Overcast,70,2013-12-09 05:31:00
12:54 AM,39.0,35.1,86,30.26,10.0,Variable,3.5,-,0.02,,Overcast,0,2013-12-09 05:54:00
1:54 AM,39.0,35.1,86,30.23,4.0,East,4.6,-,0.12,Rain,Rain,100,2013-12-09 06:54:00
2:30 AM,39.2,35.6,87,30.21,7.0,East,3.5,-,0.02,Rain,Light Rain,100,2013-12-09 07:30:00
2:49 AM,39.2,35.6,87,30.20,10.0,East,4.6,-,0.02,,Overcast,100,2013-12-09 07:49:00
2:54 AM,39.0,35.1,86,30.21,10.0,East,6.9,-,0.02,Rain,Light Rain,90,2013-12-09 07:54:00
3:15 AM,39.2,35.6,87,30.20,10.0,Calm,Calm,-,0.00,,Overcast,0,2013-12-09 08:15:00
3:54 AM,39.0,35.1,86,30.23,7.0,Calm,Calm,-,0.00,Rain,Light Rain,0,2013-12-09 08:54:00
4:15 AM,39.2,35.6,87,30.19,3.0,SE,3.5,-,0.05,Rain,Rain,130,2013-12-09 09:15:00
4:54 AM,39.0,35.1,86,30.19,4.0,NNE,4.6,-,0.12,Rain,Heavy Rain,30,2013-12-09 09:54:00
5:30 AM,39.2,35.6,87,30.16,7.0,ESE,3.5,-,0.09,Rain,Rain,120,2013-12-09 10:30:00
5:54 AM,39.9,36.0,86,30.18,8.0,Calm,Calm,-,0.14,Rain,Light Rain,0,2013-12-09 10:54:00
6:10 AM,39.2,35.6,87,30.16,10.0,Calm,Calm,-,0.00,,Overcast,0,2013-12-09 11:10:00
6:17 AM,39.2,35.6,87,30.16,10.0,Calm,Calm,-,0.00,,Overcast,0,2013-12-09 11:17:00
6:52 AM,39.2,35.6,87,30.17,8.0,Calm,Calm,-,0.03,Rain,Light Rain,0,2013-12-09 11:52:00
6:54 AM,39.9,36.0,86,30.18,8.0,Calm,Calm,-,0.03,Rain,Light Rain,0,2013-12-09 11:54:00
7:08 AM,39.2,35.6,87,30.17,5.0,Calm,Calm,-,0.00,,Overcast,0,2013-12-09 12:08:00
7:26 AM,39.2,35.6,87,30.17,2.5,Calm,Calm,-,0.00,,Overcast,0,2013-12-09 12:26:00
7:54 AM,39.9,37.0,89,30.19,2.0,Calm,Calm,-,0.00,,Overcast,0,2013-12-09 12:54:00
8:02 AM,39.2,37.4,93,30.18,1.5,Calm,Calm,-,0.00,Rain,Light Rain,0,2013-12-09 13:02:00
8:16 AM,39.2,37.4,93,30.18,2.5,Calm,Calm,-,0.01,Rain,Light Rain,0,2013-12-09 13:16:00
8:27 AM,41.0,37.4,87,30.18,4.0,Calm,Calm,-,0.01,Rain,Light Rain,0,2013-12-09 13:27:00
8:54 AM,41.0,37.0,86,30.19,2.5,Calm,Calm,-,0.01,Rain,Light Rain,0,2013-12-09 13:54:00
9:01 AM,41.0,37.4,87,30.18,3.0,Calm,Calm,-,0.01,Rain,Light Rain,0,2013-12-09 14:01:00
9:09 AM,41.0,37.4,87,30.19,2.0,Calm,Calm,-,0.02,Rain,Rain,0,2013-12-09 14:09:00
9:21 AM,41.0,37.4,87,30.18,4.0,SE,3.5,-,0.03,Rain,Light Rain,140,2013-12-09 14:21:00
9:44 AM,41.0,37.4,87,30.18,2.0,Calm,Calm,-,0.07,Rain,Rain,0,2013-12-09 14:44:00
9:54 AM,41.0,37.9,89,30.19,3.0,Calm,Calm,-,0.08,Rain,Light Rain,0,2013-12-09 14:54:00
10:54 AM,42.1,37.9,85,30.19,4.0,Calm,Calm,-,0.03,Rain,Light Rain,0,2013-12-09 15:54:00
11:15 AM,42.8,39.2,87,30.17,10.0,Calm,Calm,-,0.00,,Overcast,0,2013-12-09 16:15:00
11:54 AM,43.0,39.0,86,30.17,10.0,Calm,Calm,-,0.00,,Overcast,0,2013-12-09 16:54:00
12:20 PM,42.8,39.2,87,30.13,1.8,SSE,4.6,-,0.05,Rain,Rain,160,2013-12-09 17:20:00
12:32 PM,42.8,39.2,87,30.13,3.0,Calm,Calm,-,0.08,Rain,Rain,0,2013-12-09 17:32:00
12:41 PM,42.8,39.2,87,30.13,3.0,Calm,Calm,-,0.09,Rain,Rain,0,2013-12-09 17:41:00
12:49 PM,42.8,39.2,87,30.13,2.0,WNW,3.5,-,0.11,Rain,Light Rain,290,2013-12-09 17:49:00
12:54 PM,44.1,39.9,85,30.13,2.5,NW,3.5,-,0.13,Rain,Rain,320,2013-12-09 17:54:00
1:08 PM,44.6,39.2,81,30.12,5.0,Calm,Calm,-,0.00,Rain,Light Rain,0,2013-12-09 18:08:00
1:30 PM,44.6,39.2,81,30.11,5.0,Calm,Calm,-,0.02,Rain,Light Rain,0,2013-12-09 18:30:00
1:54 PM,45.0,39.9,82,30.11,10.0,Calm,Calm,-,0.03,Rain,Light Rain,0,2013-12-09 18:54:00
2:54 PM,45.0,41.0,86,30.10,10.0,South,3.5,-,0.00,,Overcast,190,2013-12-09 19:54:00
3:54 PM,46.0,42.1,86,30.10,10.0,Calm,Calm,-,0.00,,Overcast,0,2013-12-09 20:54:00
4:54 PM,46.9,43.0,86,30.10,9.0,Calm,Calm,-,0.01,,Overcast,0,2013-12-09 21:54:00
5:54 PM,46.9,43.0,86,30.10,8.0,Calm,Calm,-,N/A,,Overcast,0,2013-12-09 22:54:00
6:49 PM,46.4,42.8,87,30.10,1.8,Calm,Calm,-,N/A,,Overcast,0,2013-12-09 23:49:00
6:54 PM,46.9,43.0,86,30.11,1.0,Calm,Calm,-,N/A,,Mist,0,2013-12-09 23:54:00
7:32 PM,46.4,44.6,93,30.10,0.8,Calm,Calm,-,N/A,,Mist,0,2013-12-10 00:32:00
7:54 PM,46.9,43.0,86,30.11,0.8,Calm,Calm,-,N/A,,Mist,0,2013-12-10 00:54:00
8:54 PM,46.9,43.0,86,30.11,0.2,Calm,Calm,-,N/A,Fog,Fog,0,2013-12-10 01:54:00
9:54 PM,46.9,44.1,90,30.08,0.2,Calm,Calm,-,N/A,Fog,Fog,0,2013-12-10 02:54:00
10:13 PM,46.4,44.6,93,30.07,0.2,Calm,Calm,-,N/A,Fog,Fog,0,2013-12-10 03:13:00
10:54 PM,46.9,43.0,86,30.07,0.2,Calm,Calm,-,N/A,Fog,Fog,0,2013-12-10 03:54:00
11:19 PM,46.4,44.6,93,30.06,0.2,Calm,Calm,-,N/A,Fog,Fog,0,2013-12-10 04:19:00
11:34 PM,46.4,44.6,93,30.05,0.2,Calm,Calm,-,N/A,Fog,Fog,0,2013-12-10 04:34:00
11:54 PM,46.9,44.1,90,30.05,0.2,Calm,Calm,-,0.01,Fog,Fog,0,2013-12-10 04:54:00